Temp
0 0 0 0 0 0 0 0 0 0 0 0 -0 -0 0 0 0 0 -0 0 0 0 0 -0 -0 -1 -1 -1 -2 -2 -2 -2 -2 -2 -2 -2 -1 -1 -2 -2 -2 -3
0 0 0 0 0 0 0 0 0 0 0 0 0 0 0 0 0 -0 -0 -0 -0 -0 -0 -0 -1 -1 -1 -1 -2 -2 -2 -2 -2 -2 -2 -2 -2 -2 -2 -2 -3 -3
0 0 0 0 0 0 0 0 0 0 0 0 0 0 0 0 0 -0 -0 -1 -1 -1 -1 -1 -1 -1 -1 -2 -2 -2 -2 -2 -2 -2 -2 -2 -2 -2 -3 -3 -3 -3
-0 -0 -0 -0 -0 -0 0 0 -0 0 0 -0 -0 -0 -0 -0 -0 -0 -0 -1 -1 -1 -1 -1 -1 -1 -2 -2 -2 -2 -2 -2 -2 -2 -3 -3 -2 -3 -3 -3 -4 -4
-0 -0 -0 -0 -0 -0 -0 -0 -0 -0 -0 -0 -0 -0 -0 -0 -0 -0 -1 -1 -1 -1 -1 -1 -1 -2 -2 -2 -2 -3 -3 -3 -3 -3 -3 -3 -3 -3 -4 -4 -4 -5
-0 -1 -1 -0 -0 -0 -0 -0 -0 -0 -1 -0 -0 -0 -0 -0 -0 -1 -1 -1 -1 -2 -2 -2 -2 -2 -2 -2 -3 -3 -3 -3 -3 -3 -3 -3 -4 -4 -4 -5 -5 -5
-1 -1 -1 -1 -1 -1 -1 -1 -1 -1 -1 -1 -1 -1 -1 -1 -1 -1 -1 -1 -1 -2 -2 -2 -2 -2 -2 -3 -3 -3 -3 -3 -3 -4 -4 -4 -4 -5 -5 -5 -6 -6
-1 -1 -1 -1 -1 -1 -1 -1 -1 -1 -1 -1 -1 -1 -1 -1 -1 -1 -1 -1 -2 -2 -2 -3 -2 -2 -2 -3 -3 -3 -3 -4 -4 -4 -4 -5 -5 -6 -6 -6 -6 -7
-1 -1 -1 -1 -1 -1 -1 -1 -1 -1 -1 -1 -1 -1 -1 -1 -2 -2 -1 -2 -2 -2 -3 -3 -3 -3 -3 -3 -3 -3 -4 -4 -4 -4 -5 -5 -6 -6 -6 -7 -7 -7
-1 -1 -1 -1 -1 -1 -1 -1 -1 -1 -1 -1 -1 -1 -1 -1 -2 -2 -2 -2 -3 -3 -3 -3 -3 -3 -3 -3 -3 -3 -4 -4 -4 -5 -5 -5 -6 -6 -6 -7 -7 -7
-1 -1 -1 -1 -1 -1 -2 -2 -2 -2 -2 -2 -2 -2 -2 -2 -2 -2 -2 -2 -3 -3 -3 -3 -3 -3 -3 -3 -3 -4 -4 -4 -5 -5 -5 -5 -6 -6 -6 -7 -7 -8
-1 -1 -1 -1 -1 -2 -2 -2 -2 -2 -2 -2 -2 -2 -2 -2 -2 -2 -2 -2 -3 -3 -3 -3 -3 -3 -3 -4 -4 -4 -4 -4 -5 -5 -5 -6 -6 -6 -6 -7 -7 -8
-1 -1 -1 -1 -2 -2 -2 -2 -2 -2 -2 -2 -2 -2 -2 -2 -2 -2 -2 -2 -3 -3 -3 -3 -3 -3 -4 -4 -4 -4 -5 -5 -5 -5 -5 -6 -6 -6 -7 -7 -7 -8
-1 -1 -1 -2 -2 -2 -2 -2 -2 -2 -2 -2 -2 -2 -2 -2 -2 -2 -2 -2 -3 -3 -3 -3 -3 -4 -4 -4 -4 -5 -5 -5 -5 -5 -6 -6 -6 -7 -7 -7 -8 -8
-1 -1 -2 -2 -2 -2 -2 -2 -2 -2 -2 -2 -2 -2 -2 -2 -2 -2 -2 -2 -3 -3 -3 -4 -4 -4 -4 -4 -5 -5 -5 -5 -6 -6 -6 -6 -7 -7 -8 -8 -8 -8
-2 -2 -2 -2 -2 -2 -2 -2 -2 -2 -2 -2 -2 -2 -2 -2 -2 -2 -2 -2 -3 -3 -3 -4 -4 -4 -4 -5 -5 -5 -5 -6 -6 -6 -6 -7 -7 -8 -8 -8 -8 -9
-2 -2 -2 -2 -2 -2 -2 -2 -2 -2 -2 -2 -2 -2 -2 -2 -2 -2 -2 -2 -3 -3 -3 -4 -4 -5 -5 -5 -5 -5 -6 -6 -6 -6 -7 -7 -7 -8 -8 -9 -9 -9
-2 -2 -2 -2 -2 -2 -2 -2 -2 -2 -2 -2 -2 -2 -2 -2 -2 -2 -2 -2 -3 -3 -4 -4 -4 -5 -5 -5 -5 -5 -5 -6 -6 -7 -7 -7 -8 -8 -8 -9 -9 -9
-2 -2 -2 -2 -2 -2 -2 -2 -2 -2 -2 -2 -2 -2 -2 -2 -2 -2 -2 -2 -3 -3 -4 -4 -5 -5 -6 -5 -5 -5 -5 -6 -7 -7 -7 -8 -8 -8 -8 -9 -9 -9
-2 -2 -2 -2 -2 -2 -2 -2 -2 -2 -2 -2 -2 -2 -2 -2 -2 -2 -2 -2 -3 -3 -4 -4 -5 -6 -6 -5 -5 -5 -5 -6 -7 -7 -7 -8 -8 -8 -8 -9 -9 -9
-3 -2 -2 -2 -2 -2 -2 -2 -2 -2 -2 -2 -2 -2 -2 -2 -2 -2 -2 -2 -2 -3 -4 -5 -5 -6 -6 -5 -5 -5 -4 -5 -7 -7 -7 -8 -8 -8 -8 -9 -9 -9
-3 -2 -2 -2 -2 -2 -2 -2 -2 -2 -2 -2 -3 -3 -2 -2 -2 -2 -2 -2 -3 -3 -4 -5 -5 -6 -6 -5 -5 -5 -4 -5 -7 -7 -7 -8 -8 -8 -9 -9 -9 -9
-3 -3 -3 -3 -2 -2 -2 -2 -2 -2 -2 -2 -3 -3 -3 -2 -2 -2 -2 -2 -3 -4 -4 -5 -5 -6 -6 -5 -5 -5 -4 -5 -6 -7 -8 -8 -8 -8 -9 -9 -9 -9
-4 -3 -3 -3 -3 -3 -3 -3 -2 -2 -3 -3 -3 -3 -3 -3 -2 -2 -2 -3 -3 -4 -4 -5 -5 -6 -6 -5 -5 -5 -4 -5 -6 -7 -8 -8 -8 -9 -9 -9 -9 -9
-4 -4 -3 -3 -3 -3 -3 -3 -2 -2 -3 -3 -3 -3 -3 -3 -3 -2 -3 -3 -3 -4 -5 -5 -5 -6 -6 -5 -5 -5 -5 -5 -6 -7 -8 -8 -9 -9 -9 -9 -9 -9
-5 -4 -4 -4 -3 -3 -3 -3 -3 -3 -3 -3 -3 -3 -3 -3 -3 -3 -3 -3 -4 -4 -5 -5 -6 -6 -6 -6 -5 -5 -4 -5 -6 -7 -8 -9 -9 -9 -10 -10 -10 -10
Height
732 730 728 725 723 720 718 716 715 712 711 710 708 706 704 703 702 701 701 701 702 701 701 701 700 700 700 702 704 706 707 708 710 711 713 715 716 718 719 721 723 726
728 727 725 723 720 718 716 714 712 710 708 706 705 703 701 700 698 697 697 697 698 698 697 697 696 696 696 697 699 701 702 704 705 707 709 711 713 714 716 717 719 722
725 723 722 720 717 715 713 711 709 707 705 703 702 701 699 697 695 694 693 693 693 694 694 693 692 691 691 692 694 696 697 698 699 701 704 706 708 710 712 714 716 718
721 719 718 716 713 711 709 707 705 703 702 700 699 698 696 694 692 690 689 689 688 689 690 690 688 687 687 688 689 690 692 693 694 697 699 701 704 706 708 711 713 714
717 715 714 712 710 708 706 703 701 700 698 696 695 694 692 690 688 686 685 684 684 684 684 685 685 684 683 684 685 686 687 689 690 693 695 696 699 701 704 707 709 710
712 710 709 708 706 704 702 699 698 696 694 693 691 690 689 687 685 683 681 680 679 679 679 680 680 680 679 680 681 681 682 684 686 688 690 691 694 697 701 703 704 707
707 705 704 703 701 700 698 695 694 692 691 689 688 686 685 684 681 679 677 676 675 675 674 675 676 676 675 676 676 677 678 680 682 684 685 687 690 694 697 699 700 703
702 700 699 698 696 695 693 691 690 688 687 686 684 682 681 679 677 675 673 672 671 670 670 670 671 671 671 671 671 672 674 676 677 679 680 683 686 689 693 696 697 700
698 696 695 693 692 690 688 687 685 683 682 681 679 678 676 674 672 670 669 668 667 666 666 666 666 666 666 666 667 667 669 671 673 674 676 678 681 684 688 691 694 696
694 692 690 689 687 686 684 682 681 679 678 677 675 673 671 669 667 666 665 664 663 662 661 661 661 661 662 662 662 663 664 666 669 670 672 673 676 679 682 685 688 691
689 688 686 684 683 681 680 678 677 675 674 672 670 669 666 665 664 662 662 660 659 658 657 656 656 656 657 658 658 659 660 662 664 667 668 670 672 674 677 679 682 686
686 684 683 681 679 678 676 674 673 671 670 668 666 665 663 661 660 658 657 656 654 653 652 651 651 651 652 653 654 655 656 657 660 662 665 666 668 671 673 675 677 680
683 681 679 677 675 674 672 670 668 666 665 663 662 661 659 657 656 654 653 651 650 649 648 647 646 646 647 648 650 651 652 653 655 658 661 663 665 668 669 672 674 676
679 677 675 673 671 669 667 665 663 661 660 659 658 656 655 653 651 650 648 647 646 645 644 643 642 642 642 643 645 647 648 649 651 653 657 660 663 665 667 669 671 674
676 673 671 669 667 665 663 660 658 656 655 654 653 651 650 648 647 645 644 642 641 640 639 638 637 636 637 638 640 642 643 645 647 649 653 656 659 662 664 666 669 671
672 669 667 665 663 661 658 656 654 652 651 649 648 647 645 644 643 641 640 638 636 635 634 633 632 631 631 632 634 637 639 641 643 645 648 652 655 657 660 663 666 669
667 665 662 660 658 656 654 652 650 648 647 645 644 643 641 640 639 637 635 633 632 630 629 628 626 625 626 628 630 632 634 636 638 641 644 647 650 653 656 659 663 666
662 659 657 655 652 651 649 648 646 644 643 642 640 639 638 636 635 633 630 628 627 626 624 623 621 621 622 624 626 628 630 631 634 637 640 642 646 649 652 655 659 663
656 654 652 649 648 646 645 643 642 640 639 638 636 635 634 633 631 628 626 624 623 621 620 618 617 617 618 620 622 624 626 627 629 632 635 638 642 645 648 652 655 659
651 649 646 645 643 641 640 639 638 636 635 634 633 632 631 628 626 624 622 620 618 616 615 614 613 613 615 617 618 621 623 624 625 628 632 635 638 642 645 648 652 655
646 644 642 640 638 637 636 635 634 633 631 630 629 628 627 625 622 620 618 615 614 612 611 610 609 610 611 613 615 617 619 621 622 626 629 632 636 639 642 645 648 652
642 640 637 636 634 633 632 630 630 629 628 627 626 624 623 621 618 616 614 611 610 608 607 606 606 606 608 610 612 614 616 618 620 623 627 630 634 637 640 643 646 649
639 636 633 631 630 630 628 627 626 625 624 623 622 620 619 617 614 612 610 608 606 605 604 603 602 603 605 607 609 611 613 615 618 621 625 628 631 634 637 640 643 646
634 631 629 628 627 626 625 624 622 621 621 620 618 616 614 612 610 608 606 604 603 601 601 600 600 600 602 604 606 608 611 613 615 619 623 626 629 632 635 638 641 644
631 627 626 626 624 623 622 621 619 618 617 616 614 612 609 607 606 604 602 600 599 599 598 598 598 598 600 602 604 606 609 611 613 616 620 623 626 630 633 637 640 644
629 626 625 623 621 620 619 617 616 614 613 611 609 607 605 603 602 600 598 597 597 596 596 596 596 597 598 600 603 604 607 608 610 613 616 620 624 628 632 636 640 643
Wind_Speed
30 30 29 29 29 28 28 28 28 28 29 28 28 29 28 27 25 23 24 26 28 31 33 35 36 36 36 36 37 38 39 39 40 42 43 44 46 46 44 41 39 38
30 30 29 29 29 29 29 29 30 30 30 30 29 30 29 28 26 24 23 25 28 31 33 34 35 35 35 36 36 37 38 38 39 40 41 43 45 45 44 41 40 38
29 29 29 29 29 29 30 30 30 30 31 31 30 30 30 29 27 25 23 23 26 30 32 33 34 35 35 35 36 37 39 40 40 40 41 42 44 45 44 41 39 38
29 28 29 29 29 30 30 30 29 29 30 31 31 30 30 30 28 26 24 23 24 28 31 33 33 34 35 35 35 37 39 41 41 40 40 41 43 45 44 41 39 38
29 29 29 29 29 30 30 29 29 29 30 31 32 32 31 30 30 28 26 24 23 25 29 32 33 33 34 35 35 37 38 40 39 38 39 41 42 43 42 40 39 37
31 30 29 29 29 29 29 29 29 29 30 31 32 32 31 31 31 30 28 25 24 24 27 31 33 33 34 34 35 37 38 39 38 37 38 41 41 41 40 40 39 37
32 31 31 30 29 29 29 29 29 29 30 30 30 31 30 30 31 30 29 27 25 25 26 29 32 33 33 34 35 36 37 37 37 37 39 40 40 39 38 38 38 37
32 32 31 31 30 29 29 29 29 29 30 30 29 30 29 29 29 29 30 28 26 26 26 27 30 33 33 34 35 37 36 35 35 37 40 39 37 37 37 34 34 35
32 32 31 30 29 29 29 29 30 31 31 29 29 30 29 28 28 28 29 28 26 25 25 26 28 32 33 34 36 37 36 36 36 38 41 38 35 36 36 34 32 32
32 32 32 31 30 29 29 29 31 31 31 30 30 30 30 29 28 26 26 26 24 24 25 25 27 30 32 34 36 37 36 36 36 38 39 38 36 36 36 36 34 33
32 32 31 30 30 31 30 30 31 30 30 30 30 30 29 29 28 26 25 24 24 25 26 26 27 30 31 33 36 36 34 34 35 36 37 37 37 36 36 37 36 34
31 30 30 30 30 30 30 30 30 29 29 29 29 29 28 28 27 26 25 25 26 27 27 28 28 29 31 33 35 35 34 33 35 35 35 35 36 36 36 36 36 35
30 29 29 30 30 30 30 31 30 28 28 28 28 28 27 27 27 27 26 26 26 27 27 28 28 28 31 33 33 33 34 33 34 34 33 33 33 34 34 34 35 35
30 30 30 29 30 31 31 31 30 29 28 27 27 26 26 26 26 28 28 26 25 25 25 26 27 28 30 32 32 33 33 33 33 32 31 29 29 31 32 33 33 34
31 31 30 29 29 31 31 31 30 30 29 28 27 27 26 26 27 29 29 27 25 25 25 25 27 29 30 32 32 33 33 33 32 31 30 28 28 28 30 31 32 32
31 31 29 28 28 30 30 29 29 28 27 27 27 27 26 26 27 28 28 27 26 26 25 25 27 29 30 32 33 33 33 32 31 30 29 28 28 28 28 29 30 31
31 31 30 28 28 28 28 28 27 26 26 26 27 27 25 25 26 28 28 28 26 26 25 25 27 29 29 29 30 32 33 33 31 29 29 29 29 28 29 29 29 30
32 31 30 29 28 27 26 26 25 24 24 25 26 25 24 24 26 29 30 28 25 24 24 25 27 29 27 27 28 30 33 33 31 28 29 31 30 28 29 31 30 29
34 31 30 29 28 26 25 25 24 22 22 23 24 24 24 26 27 28 30 28 25 24 25 25 26 26 25 26 28 30 31 32 31 29 29 32 31 29 29 30 31 29
33 30 29 29 28 25 24 23 22 22 22 23 22 22 24 26 26 27 28 27 26 25 25 25 24 24 24 26 28 29 30 31 31 29 29 30 30 30 31 30 31 30
29 29 28 28 27 24 22 22 22 22 22 22 21 22 24 26 26 26 26 27 27 25 23 23 23 22 23 25 27 28 29 29 29 28 28 28 29 30 30 30 30 30
29 29 29 27 24 22 22 21 21 21 21 21 21 22 24 26 27 26 25 27 27 24 21 21 21 21 22 25 25 26 27 26 27 27 27 26 26 27 28 28 28 29
31 31 29 25 22 21 21 21 20 21 21 20 21 22 23 25 27 26 26 26 25 22 20 20 21 20 21 23 23 25 25 22 24 27 26 25 25 26 28 27 27 28
34 31 26 22 21 21 21 21 21 21 20 19 21 22 23 25 27 26 26 25 23 21 19 19 20 20 20 21 22 24 24 21 23 26 25 24 24 25 26 26 25 25
33 27 21 20 22 22 22 22 22 21 21 21 22 24 24 25 25 24 25 24 21 20 18 17 19 19 18 19 21 23 23 20 22 25 24 23 23 23 23 24 23 22
30 26 22 23 23 22 23 23 21 21 22 23 24 24 23 23 23 23 23 21 19 18 16 16 18 17 17 19 20 22 22 20 23 24 23 23 24 24 23 22 22 22
Wind_Direction
306 304 302 300 299 298 299 299 299 300 301 303 303 304 306 309 308 303 291 279 270 262 257 251 245 240 236 233 230 228 227 225 226 227 225 223 223 221 217 216 215 214
305 303 301 298 296 297 298 299 298 297 297 298 299 301 304 307 307 305 297 285 274 266 260 253 247 241 236 232 230 228 226 225 226 227 225 224 224 220 217 216 214 214
303 302 300 297 295 296 297 297 296 295 295 295 296 299 301 303 303 302 299 289 277 268 262 255 248 242 236 232 229 228 226 225 225 226 224 224 223 219 217 216 214 214
302 301 300 297 296 296 296 295 294 293 293 293 294 296 297 299 299 298 297 291 280 270 262 256 249 242 237 232 228 227 227 227 227 226 224 223 222 218 215 214 212 213
300 300 299 297 296 296 295 293 292 293 292 292 294 295 295 296 297 295 293 290 282 272 263 256 250 243 237 232 228 226 226 226 227 225 222 220 218 216 214 212 211 212
300 300 298 297 295 295 293 291 292 293 292 292 293 294 294 294 294 293 291 289 283 274 263 255 249 244 238 232 228 227 226 225 225 223 219 217 215 213 212 212 211 211
300 300 299 298 296 295 293 291 292 292 292 292 291 291 292 291 292 292 291 288 283 276 264 253 248 243 237 231 228 227 226 225 223 219 216 214 212 210 210 211 211 210
299 300 299 298 296 295 293 292 292 292 292 291 290 290 290 289 288 289 290 288 283 277 266 253 247 243 237 231 228 225 224 222 220 216 212 210 209 208 208 209 208 208
299 299 298 297 296 295 294 293 294 294 294 291 290 291 292 290 287 286 288 286 279 273 266 253 246 242 237 232 228 224 221 219 217 213 209 206 205 206 206 206 206 207
299 299 299 299 298 297 295 294 294 295 294 291 291 292 292 292 290 286 285 281 274 268 264 255 247 242 237 231 228 225 221 218 216 213 209 207 205 205 204 204 205 205
299 299 299 299 299 297 295 294 294 293 292 290 290 291 291 291 291 288 283 277 271 267 264 258 252 245 237 232 229 225 221 217 214 212 210 208 207 206 204 203 204 204
297 297 298 298 297 296 294 292 292 290 289 289 289 290 290 290 289 288 283 277 273 269 265 262 257 248 239 234 229 224 220 216 213 212 211 209 208 207 205 205 204 204
296 295 296 297 296 296 294 291 290 289 288 288 289 289 288 286 286 287 283 278 273 270 266 262 258 250 241 235 230 224 219 215 212 211 212 210 208 207 206 206 206 205
296 295 295 295 296 296 293 291 291 291 291 292 291 289 285 283 284 285 283 279 274 269 266 262 257 250 242 234 228 224 218 214 211 210 210 209 208 208 207 207 208 207
296 294 292 292 294 293 290 288 290 292 294 295 293 289 286 285 286 286 284 280 275 269 265 261 254 248 241 233 226 221 215 212 210 208 207 206 205 205 207 208 208 207
296 293 288 287 288 287 284 284 286 288 290 292 292 288 286 288 289 288 284 278 274 271 267 262 254 248 241 232 224 219 213 209 207 205 203 202 201 201 202 205 206 207
295 293 288 284 282 281 279 280 282 284 286 289 290 287 286 289 289 287 283 277 272 270 269 264 256 249 240 228 220 216 212 208 205 202 200 199 199 199 199 201 203 206
294 292 289 284 280 278 279 281 281 282 285 288 288 286 288 290 287 284 282 278 272 270 269 263 256 248 237 223 218 215 211 206 203 199 197 198 199 199 200 200 200 203
291 289 287 284 280 277 279 281 281 282 285 286 286 287 290 289 284 283 283 280 277 275 272 265 255 246 232 220 217 216 210 203 199 197 196 198 199 199 199 199 200 200
289 285 284 283 279 276 279 280 281 285 286 284 284 288 289 285 283 283 282 279 278 276 274 267 256 243 228 217 216 216 209 201 197 197 197 197 198 199 199 199 199 198
289 286 284 282 279 278 280 280 282 286 286 285 286 288 285 282 283 283 280 278 278 276 272 265 255 241 226 218 216 215 209 200 194 194 195 196 197 200 200 199 198 197
295 291 286 281 280 282 282 281 284 288 287 286 288 288 285 283 283 281 278 278 278 276 270 260 251 239 225 218 215 213 211 201 189 189 193 193 194 198 198 199 198 198
302 295 285 280 284 287 285 285 289 290 288 288 289 287 285 284 283 281 279 277 276 273 266 255 249 239 224 218 214 210 210 200 182 182 188 189 192 195 196 197 198 200
305 294 282 283 290 289 285 286 290 290 289 290 288 283 281 280 280 280 279 277 274 271 264 252 249 243 226 217 214 210 208 197 178 178 184 185 187 189 191 194 196 199
310 301 290 293 294 288 285 286 288 291 292 290 285 280 278 278 278 278 278 276 274 273 265 248 244 241 227 217 213 210 207 193 176 176 180 179 178 178 182 188 191 192
312 309 302 297 292 286 286 287 288 291 292 289 285 282 280 279 278 276 274 275 275 275 266 247 238 233 225 218 212 210 205 188 176 180 180 174 171 170 171 179 185 187